Time,TemperatureF,DewpointF,PressureIn,WindDirection,WindDirectionDegrees,WindSpeedMPH,WindSpeedGustMPH,Humidity,HourlyPrecipIn,Conditions,Clouds,dailyrainin,SoftwareType,DateUTC
2013-04-27 00:03:00,49.1,44.8,30.15,South,187,0.0,4.0,85,0.00,,,0.00,VWS V14.00,2013-04-27 05:03:00,
2013-04-27 00:08:00,49.0,44.7,30.15,South,187,0.0,0.0,85,0.00,,,0.00,VWS V14.00,2013-04-27 05:08:00,
2013-04-27 00:13:00,48.8,44.5,30.16,SSW,196,0.0,0.0,85,0.00,,,0.00,VWS V14.00,2013-04-27 05:13:00,
2013-04-27 00:18:00,48.7,44.4,30.16,SW,219,0.0,0.0,85,0.00,,,0.00,VWS V14.00,2013-04-27 05:18:00,
2013-04-27 00:23:00,48.6,44.6,30.16,SW,219,0.0,0.0,86,0.00,,,0.00,VWS V14.00,2013-04-27 05:23:00,
2013-04-27 00:28:00,48.5,44.5,30.16,SW,219,0.0,0.0,86,0.00,,,0.00,VWS V14.00,2013-04-27 05:28:00,
2013-04-27 00:33:00,48.3,44.3,30.16,SW,218,0.0,1.0,86,0.00,,,0.00,VWS V14.00,2013-04-27 05:33:00,
2013-04-27 00:38:00,48.2,44.2,30.15,SW,218,0.0,0.0,86,0.00,,,0.00,VWS V14.00,2013-04-27 05:38:00,
2013-04-27 00:43:00,48.1,44.1,30.16,WSW,239,0.0,0.0,86,0.00,,,0.00,VWS V14.00,2013-04-27 05:43:00,
2013-04-27 00:48:00,48.0,44.0,30.16,WSW,237,0.0,0.0,86,0.00,,,0.00,VWS V14.00,2013-04-27 05:48:00,
2013-04-27 00:53:00,47.9,43.9,30.16,SW,235,0.0,0.0,86,0.00,,,0.00,VWS V14.00,2013-04-27 05:53:00,
2013-04-27 00:58:00,47.8,44.1,30.16,SW,215,0.0,0.0,87,0.00,,,0.00,VWS V14.00,2013-04-27 05:58:00,
2013-04-27 01:03:00,47.6,43.9,30.16,SW,214,0.0,3.0,87,0.00,,,0.00,VWS V14.00,2013-04-27 06:03:00,
2013-04-27 01:07:00,47.6,43.9,30.16,SW,231,0.0,2.0,87,0.00,,,0.00,VWS V14.00,2013-04-27 06:07:00,
2013-04-27 01:12:00,47.5,43.8,30.16,SW,231,0.0,2.0,87,0.00,,,0.00,VWS V14.00,2013-04-27 06:12:00,
2013-04-27 01:17:00,47.4,43.7,30.16,SSW,213,4.0,4.0,87,0.00,,,0.00,VWS V14.00,2013-04-27 06:17:00,
2013-04-27 01:22:00,47.3,43.6,30.16,SSW,211,0.0,4.0,87,0.00,,,0.00,VWS V14.00,2013-04-27 06:22:00,
2013-04-27 01:27:00,47.2,43.8,30.16,SSW,212,0.0,4.0,88,0.00,,,0.00,VWS V14.00,2013-04-27 06:27:00,
2013-04-27 01:32:00,47.1,43.7,30.15,SSW,213,0.0,4.0,88,0.00,,,0.00,VWS V14.00,2013-04-27 06:32:00,
2013-04-27 01:37:00,47.0,43.6,30.15,SSW,213,0.0,0.0,88,0.00,,,0.00,VWS V14.00,2013-04-27 06:37:00,
2013-04-27 01:42:00,46.9,43.5,30.16,SSW,213,0.0,0.0,88,0.00,,,0.00,VWS V14.00,2013-04-27 06:42:00,
2013-04-27 01:47:00,46.9,43.5,30.16,SSW,213,0.0,0.0,88,0.00,,,0.00,VWS V14.00,2013-04-27 06:47:00,
2013-04-27 01:52:00,47.1,44.0,30.16,WSW,256,0.0,2.0,89,0.00,,,0.00,VWS V14.00,2013-04-27 06:52:00,
2013-04-27 01:57:00,47.2,44.1,30.15,WSW,256,0.0,2.0,89,0.00,,,0.00,VWS V14.00,2013-04-27 06:57:00,
2013-04-27 02:02:00,47.0,43.9,30.15,WSW,256,0.0,2.0,89,0.00,,,0.00,VWS V14.00,2013-04-27 07:02:00,
2013-04-27 02:07:00,46.9,43.5,30.15,WSW,256,0.0,0.0,88,0.00,,,0.00,VWS V14.00,2013-04-27 07:07:00,
2013-04-27 02:12:00,46.7,43.6,30.15,WSW,256,0.0,0.0,89,0.00,,,0.00,VWS V14.00,2013-04-27 07:12:00,
2013-04-27 02:17:00,46.5,43.4,30.14,WSW,256,0.0,0.0,89,0.00,,,0.00,VWS V14.00,2013-04-27 07:17:00,
2013-04-27 02:22:00,46.4,43.3,30.15,WSW,256,0.0,0.0,89,0.00,,,0.00,VWS V14.00,2013-04-27 07:22:00,
2013-04-27 02:27:00,46.2,43.1,30.15,WSW,256,0.0,0.0,89,0.00,,,0.00,VWS V14.00,2013-04-27 07:27:00,
2013-04-27 02:32:00,46.1,43.0,30.14,WSW,256,0.0,0.0,89,0.00,,,0.00,VWS V14.00,2013-04-27 07:32:00,
2013-04-27 02:37:00,45.9,42.8,30.14,SSW,203,0.0,1.0,89,0.00,,,0.00,VWS V14.00,2013-04-27 07:37:00,
2013-04-27 02:42:00,45.7,42.7,30.14,SSW,204,0.0,1.0,89,0.00,,,0.00,VWS V14.00,2013-04-27 07:42:00,
2013-04-27 02:47:00,45.7,42.7,30.14,SSW,200,0.0,1.0,89,0.00,,,0.00,VWS V14.00,2013-04-27 07:47:00,
2013-04-27 02:52:00,45.6,42.5,30.14,SSW,194,0.0,1.0,89,0.00,,,0.00,VWS V14.00,2013-04-27 07:52:00,
2013-04-27 02:57:00,45.6,42.8,30.14,SSW,193,0.0,1.0,90,0.00,,,0.00,VWS V14.00,2013-04-27 07:57:00,
2013-04-27 03:02:00,45.5,42.7,30.13,SW,223,0.0,1.0,90,0.00,,,0.00,VWS V14.00,2013-04-27 08:02:00,
2013-04-27 03:07:00,45.5,42.7,30.13,SW,223,5.0,6.0,90,0.00,,,0.00,VWS V14.00,2013-04-27 08:07:00,
2013-04-27 03:12:00,45.4,42.6,30.13,WSW,238,0.0,7.0,90,0.00,,,0.00,VWS V14.00,2013-04-27 08:12:00,
2013-04-27 03:17:00,45.4,42.6,30.13,SSW,196,0.0,7.0,90,0.00,,,0.00,VWS V14.00,2013-04-27 08:17:00,
2013-04-27 03:22:00,45.2,42.5,30.13,SSW,202,0.0,7.0,90,0.00,,,0.00,VWS V14.00,2013-04-27 08:22:00,
2013-04-27 03:27:00,45.1,42.3,30.13,SSW,202,0.0,7.0,90,0.00,,,0.00,VWS V14.00,2013-04-27 08:27:00,
2013-04-27 03:32:00,45.0,42.2,30.13,SSW,203,0.0,7.0,90,0.00,,,0.00,VWS V14.00,2013-04-27 08:32:00,
2013-04-27 03:37:00,45.0,42.5,30.13,SSW,205,0.0,0.0,91,0.00,,,0.00,VWS V14.00,2013-04-27 08:37:00,
2013-04-27 03:42:00,45.0,42.5,30.13,SSW,205,0.0,0.0,91,0.00,,,0.00,VWS V14.00,2013-04-27 08:42:00,
2013-04-27 03:47:00,45.0,42.5,30.13,SW,227,3.0,3.0,91,0.00,,,0.00,VWS V14.00,2013-04-27 08:47:00,
2013-04-27 03:52:00,45.1,42.6,30.12,SW,226,0.0,3.0,91,0.00,,,0.00,VWS V14.00,2013-04-27 08:52:00,
2013-04-27 03:57:00,45.1,42.6,30.12,SW,226,0.0,3.0,91,0.00,,,0.00,VWS V14.00,2013-04-27 08:57:00,
2013-04-27 04:02:00,45.2,42.7,30.12,SW,226,0.0,3.0,91,0.00,,,0.00,VWS V14.00,2013-04-27 09:02:00,
2013-04-27 04:07:00,45.2,43.0,30.12,SE,146,0.0,0.0,92,0.00,,,0.00,VWS V14.00,2013-04-27 09:07:00,
2013-04-27 04:12:00,45.3,42.8,30.12,SSW,195,0.0,1.0,91,0.00,,,0.00,VWS V14.00,2013-04-27 09:12:00,
2013-04-27 04:17:00,45.2,43.0,30.12,SSW,209,0.0,4.0,92,0.00,,,0.00,VWS V14.00,2013-04-27 09:17:00,
2013-04-27 04:22:00,45.1,42.9,30.12,WSW,253,3.0,4.0,92,0.00,,,0.00,VWS V14.00,2013-04-27 09:22:00,
2013-04-27 04:27:00,45.0,42.8,30.11,SW,222,0.0,4.0,92,0.00,,,0.00,VWS V14.00,2013-04-27 09:27:00,
2013-04-27 04:32:00,45.0,42.8,30.11,SW,215,4.0,7.0,92,0.00,,,0.00,VWS V14.00,2013-04-27 09:32:00,
2013-04-27 04:37:00,45.0,42.8,30.11,SSW,210,0.0,0.0,92,0.00,,,0.00,VWS V14.00,2013-04-27 09:37:00,
2013-04-27 04:42:00,45.0,42.8,30.11,SSW,210,0.0,0.0,92,0.00,,,0.00,VWS V14.00,2013-04-27 09:42:00,
2013-04-27 04:47:00,45.0,42.8,30.11,SSW,210,0.0,0.0,92,0.00,,,0.00,VWS V14.00,2013-04-27 09:47:00,
2013-04-27 04:52:00,45.0,42.8,30.11,SSW,211,0.0,0.0,92,0.00,,,0.00,VWS V14.00,2013-04-27 09:52:00,
2013-04-27 04:57:00,45.0,42.8,30.11,WSW,237,0.0,0.0,92,0.00,,,0.00,VWS V14.00,2013-04-27 09:57:00,
2013-04-27 05:02:00,45.0,42.8,30.11,SSW,209,0.0,0.0,92,0.00,,,0.00,VWS V14.00,2013-04-27 10:02:00,
2013-04-27 05:07:00,45.0,42.8,30.11,WSW,238,2.0,5.0,92,0.00,,,0.00,VWS V14.00,2013-04-27 10:07:00,
2013-04-27 05:12:00,44.8,42.6,30.11,WSW,239,0.0,5.0,92,0.00,,,0.00,VWS V14.00,2013-04-27 10:12:00,
2013-04-27 05:17:00,44.7,42.5,30.10,WSW,244,3.0,5.0,92,0.00,,,0.00,VWS V14.00,2013-04-27 10:17:00,
2013-04-27 05:22:00,44.7,42.5,30.10,SW,229,0.0,5.0,92,0.00,,,0.00,VWS V14.00,2013-04-27 10:22:00,
2013-04-27 05:27:00,44.8,42.6,30.10,SSW,204,0.0,5.0,92,0.00,,,0.00,VWS V14.00,2013-04-27 10:27:00,
2013-04-27 05:32:00,44.9,42.7,30.10,SSW,203,0.0,5.0,92,0.00,,,0.00,VWS V14.00,2013-04-27 10:32:00,
2013-04-27 05:37:00,44.9,43.0,30.10,SSW,195,0.0,0.0,93,0.00,,,0.00,VWS V14.00,2013-04-27 10:37:00,
2013-04-27 05:42:00,44.9,42.7,30.10,SW,219,0.0,3.0,92,0.00,,,0.00,VWS V14.00,2013-04-27 10:42:00,
2013-04-27 05:47:00,44.9,42.7,30.11,SW,222,0.0,3.0,92,0.00,,,0.00,VWS V14.00,2013-04-27 10:47:00,
2013-04-27 05:52:00,44.9,43.0,30.10,SW,222,0.0,3.0,93,0.00,,,0.00,VWS V14.00,2013-04-27 10:52:00,
2013-04-27 05:57:00,44.9,43.0,30.11,SW,221,0.0,3.0,93,0.00,,,0.00,VWS V14.00,2013-04-27 10:57:00,
2013-04-27 06:02:00,44.9,43.0,30.11,SW,221,0.0,3.0,93,0.00,,,0.00,VWS V14.00,2013-04-27 11:02:00,
2013-04-27 06:07:00,44.9,43.0,30.11,SW,221,0.0,0.0,93,0.00,,,0.00,VWS V14.00,2013-04-27 11:07:00,
2013-04-27 06:12:00,44.9,43.0,30.11,SW,218,0.0,0.0,93,0.00,,,0.00,VWS V14.00,2013-04-27 11:12:00,
2013-04-27 06:17:00,44.8,42.9,30.11,South,170,2.0,5.0,93,0.00,,,0.00,VWS V14.00,2013-04-27 11:17:00,
2013-04-27 06:22:00,44.7,42.8,30.11,South,184,0.0,5.0,93,0.00,,,0.00,VWS V14.00,2013-04-27 11:22:00,
2013-04-27 06:27:00,44.7,42.8,30.12,South,184,0.0,5.0,93,0.00,,,0.00,VWS V14.00,2013-04-27 11:27:00,
2013-04-27 06:32:00,44.8,42.9,30.12,SSW,196,0.0,5.0,93,0.00,,,0.00,VWS V14.00,2013-04-27 11:32:00,
2013-04-27 06:37:00,44.9,43.0,30.12,South,180,0.0,0.0,93,0.00,,,0.00,VWS V14.00,2013-04-27 11:37:00,
2013-04-27 06:41:00,44.8,42.9,30.12,South,169,3.0,5.0,93,0.00,,,0.00,VWS V14.00,2013-04-27 11:41:00,
2013-04-27 06:46:00,44.7,42.8,30.12,SSE,153,4.0,5.0,93,0.00,,,0.00,VWS V14.00,2013-04-27 11:46:00,
2013-04-27 06:51:00,44.7,42.8,30.13,SSE,166,0.0,6.0,93,0.00,,,0.00,VWS V14.00,2013-04-27 11:51:00,
2013-04-27 06:56:00,44.8,42.9,30.13,South,171,2.0,6.0,93,0.00,,,0.00,VWS V14.00,2013-04-27 11:56:00,
2013-04-27 07:02:00,44.9,43.0,30.13,SSE,167,4.0,6.0,93,0.00,,,0.00,VWS V14.00,2013-04-27 12:02:00,
2013-04-27 07:07:00,44.9,43.0,30.13,South,175,0.0,3.0,93,0.00,,,0.00,VWS V14.00,2013-04-27 12:07:00,
2013-04-27 07:12:00,45.0,43.1,30.13,SSE,166,1.0,5.0,93,0.00,,,0.00,VWS V14.00,2013-04-27 12:12:00,
2013-04-27 07:17:00,45.0,43.1,30.13,SE,146,0.0,5.0,93,0.00,,,0.00,VWS V14.00,2013-04-27 12:17:00,
2013-04-27 07:22:00,45.1,43.2,30.13,South,182,0.0,5.0,93,0.00,,,0.00,VWS V14.00,2013-04-27 12:22:00,
2013-04-27 07:26:00,45.2,43.3,30.13,SSW,192,4.0,5.0,93,0.00,,,0.00,VWS V14.00,2013-04-27 12:26:00,
2013-04-27 07:31:00,45.3,43.4,30.13,SSE,166,3.0,7.0,93,0.00,,,0.00,VWS V14.00,2013-04-27 12:31:00,
2013-04-27 07:36:00,45.4,43.5,30.13,SSE,163,3.0,6.0,93,0.00,,,0.00,VWS V14.00,2013-04-27 12:36:00,
2013-04-27 07:41:00,45.5,43.6,30.13,South,183,5.0,6.0,93,0.00,,,0.00,VWS V14.00,2013-04-27 12:41:00,
2013-04-27 07:46:00,45.6,43.7,30.13,South,181,0.0,6.0,93,0.00,,,0.00,VWS V14.00,2013-04-27 12:46:00,
2013-04-27 07:51:00,45.8,44.2,30.13,South,180,1.0,6.0,94,0.00,,,0.00,VWS V14.00,2013-04-27 12:51:00,
2013-04-27 07:56:00,45.9,44.3,30.13,SSW,206,0.0,6.0,94,0.00,,,0.00,VWS V14.00,2013-04-27 12:56:00,
2013-04-27 08:01:00,46.0,44.4,30.13,SW,217,0.0,6.0,94,0.00,,,0.00,VWS V14.00,2013-04-27 13:01:00,
2013-04-27 08:06:00,46.1,44.2,30.14,South,184,6.0,6.0,93,0.00,,,0.00,VWS V14.00,2013-04-27 13:06:00,
2013-04-27 08:11:00,46.2,44.3,30.13,SSW,202,3.0,6.0,93,0.00,,,0.00,VWS V14.00,2013-04-27 13:11:00,
2013-04-27 08:16:00,46.3,44.4,30.13,South,185,3.0,6.0,93,0.00,,,0.00,VWS V14.00,2013-04-27 13:16:00,
2013-04-27 08:21:00,46.4,44.8,30.13,South,186,0.0,6.0,94,0.00,,,0.00,VWS V14.00,2013-04-27 13:21:00,
2013-04-27 08:26:00,46.6,45.0,30.13,South,180,2.0,6.0,94,0.00,,,0.00,VWS V14.00,2013-04-27 13:26:00,
2013-04-27 08:31:00,46.7,45.1,30.13,SSW,193,0.0,6.0,94,0.00,,,0.00,VWS V14.00,2013-04-27 13:31:00,
2013-04-27 08:36:00,46.8,45.2,30.13,SSW,205,0.0,5.0,94,0.00,,,0.00,VWS V14.00,2013-04-27 13:36:00,
2013-04-27 08:41:00,47.0,45.4,30.13,South,191,0.0,5.0,94,0.00,,,0.00,VWS V14.00,2013-04-27 13:41:00,
2013-04-27 08:48:00,47.1,45.5,30.13,SSE,156,0.0,7.0,94,0.00,,,0.00,VWS V14.00,2013-04-27 13:48:00,
2013-04-27 08:53:00,47.2,45.6,30.13,SSE,154,0.0,7.0,94,0.00,,,0.00,VWS V14.00,2013-04-27 13:53:00,
2013-04-27 08:58:00,47.3,45.7,30.13,South,188,0.0,7.0,94,0.00,,,0.00,VWS V14.00,2013-04-27 13:58:00,
2013-04-27 09:03:00,47.4,45.8,30.13,SSE,160,2.0,7.0,94,0.00,,,0.00,VWS V14.00,2013-04-27 14:03:00,
2013-04-27 09:08:00,47.5,45.9,30.13,South,179,0.0,0.0,94,0.00,,,0.00,VWS V14.00,2013-04-27 14:08:00,
2013-04-27 09:13:00,47.7,46.1,30.12,SSW,195,2.0,4.0,94,0.00,,,0.00,VWS V14.00,2013-04-27 14:13:00,
2013-04-27 09:18:00,47.8,46.2,30.12,SSE,160,0.0,5.0,94,0.00,,,0.00,VWS V14.00,2013-04-27 14:18:00,
2013-04-27 09:23:00,47.8,46.2,30.12,South,189,0.0,5.0,94,0.00,,,0.00,VWS V14.00,2013-04-27 14:23:00,
2013-04-27 09:28:00,48.0,46.4,30.12,South,179,5.0,7.0,94,0.00,,,0.00,VWS V14.00,2013-04-27 14:28:00,
2013-04-27 09:33:00,48.1,46.5,30.12,SSW,196,1.0,9.0,94,0.00,,,0.00,VWS V14.00,2013-04-27 14:33:00,
2013-04-27 09:38:00,48.2,46.6,30.12,SW,227,5.0,5.0,94,0.00,,,0.00,VWS V14.00,2013-04-27 14:38:00,
2013-04-27 09:43:00,48.3,46.7,30.12,South,175,3.0,5.0,94,0.00,,,0.00,VWS V14.00,2013-04-27 14:43:00,
2013-04-27 09:48:00,48.3,46.7,30.12,South,187,0.0,7.0,94,0.00,,,0.00,VWS V14.00,2013-04-27 14:48:00,
2013-04-27 09:53:00,48.5,46.9,30.12,SSW,206,5.0,7.0,94,0.00,,,0.00,VWS V14.00,2013-04-27 14:53:00,
2013-04-27 09:58:00,48.6,47.0,30.11,SSE,165,0.0,7.0,94,0.00,,,0.00,VWS V14.00,2013-04-27 14:58:00,
2013-04-27 10:03:00,48.8,47.2,30.11,SSW,200,5.0,7.0,94,0.00,,,0.00,VWS V14.00,2013-04-27 15:03:00,
2013-04-27 10:08:00,48.9,47.2,30.11,SSW,202,0.0,6.0,94,0.00,,,0.00,VWS V14.00,2013-04-27 15:08:00,
2013-04-27 10:13:00,49.0,47.3,30.11,SE,146,3.0,6.0,94,0.00,,,0.00,VWS V14.00,2013-04-27 15:13:00,
2013-04-27 10:18:00,49.2,47.5,30.11,WSW,238,5.0,7.0,94,0.00,,,0.00,VWS V14.00,2013-04-27 15:18:00,
2013-04-27 10:23:00,49.2,47.5,30.11,SSW,213,0.0,8.0,94,0.00,,,0.00,VWS V14.00,2013-04-27 15:23:00,
2013-04-27 10:28:00,49.4,47.8,30.11,SW,226,5.0,8.0,94,0.00,,,0.00,VWS V14.00,2013-04-27 15:28:00,
2013-04-27 10:33:00,49.4,47.8,30.11,SSW,200,0.0,8.0,94,0.00,,,0.00,VWS V14.00,2013-04-27 15:33:00,
2013-04-27 10:38:00,49.6,48.0,30.11,SW,221,0.0,5.0,94,0.00,,,0.00,VWS V14.00,2013-04-27 15:38:00,
2013-04-27 10:43:00,49.7,48.0,30.11,South,185,0.0,5.0,94,0.00,,,0.00,VWS V14.00,2013-04-27 15:43:00,
2013-04-27 10:48:00,50.0,48.3,30.11,SW,225,1.0,9.0,94,0.00,,,0.00,VWS V14.00,2013-04-27 15:48:00,
2013-04-27 10:53:00,50.2,48.5,30.11,SSW,196,0.0,9.0,94,0.00,,,0.00,VWS V14.00,2013-04-27 15:53:00,
2013-04-27 10:58:00,50.5,48.6,30.11,SSW,196,4.0,9.0,93,0.00,,,0.00,VWS V14.00,2013-04-27 15:58:00,
2013-04-27 11:03:00,50.6,48.7,30.11,South,190,2.0,9.0,93,0.00,,,0.00,VWS V14.00,2013-04-27 16:03:00,
2013-04-27 11:08:00,50.8,48.8,30.11,SW,219,1.0,6.0,93,0.00,,,0.00,VWS V14.00,2013-04-27 16:08:00,
2013-04-27 11:13:00,51.2,49.2,30.11,SSW,207,5.0,6.0,93,0.00,,,0.00,VWS V14.00,2013-04-27 16:13:00,
2013-04-27 11:18:00,51.5,49.5,30.11,SSW,202,4.0,6.0,93,0.00,,,0.00,VWS V14.00,2013-04-27 16:18:00,
2013-04-27 11:23:00,51.8,49.5,30.11,SW,215,0.0,6.0,92,0.00,,,0.00,VWS V14.00,2013-04-27 16:23:00,
2013-04-27 11:28:00,52.2,50.0,30.11,South,188,3.0,6.0,92,0.00,,,0.00,VWS V14.00,2013-04-27 16:28:00,
2013-04-27 11:33:00,52.6,50.0,30.11,SSW,192,0.0,6.0,91,0.00,,,0.00,VWS V14.00,2013-04-27 16:33:00,
2013-04-27 11:38:00,53.1,50.5,30.11,SW,219,3.0,5.0,91,0.00,,,0.00,VWS V14.00,2013-04-27 16:38:00,
2013-04-27 11:43:00,53.7,50.8,30.11,SW,233,0.0,8.0,90,0.00,,,0.00,VWS V14.00,2013-04-27 16:43:00,
2013-04-27 11:48:00,54.5,51.0,30.11,SSW,204,5.0,9.0,88,0.00,,,0.00,VWS V14.00,2013-04-27 16:48:00,
2013-04-27 11:53:00,55.1,50.7,30.11,SW,214,4.0,9.0,85,0.00,,,0.00,VWS V14.00,2013-04-27 16:53:00,
2013-04-27 11:58:00,55.7,50.6,30.10,SSW,209,3.0,9.0,83,0.00,,,0.00,VWS V14.00,2013-04-27 16:58:00,
2013-04-27 12:03:00,56.4,50.7,30.10,SW,223,0.0,9.0,81,0.00,,,0.00,VWS V14.00,2013-04-27 17:03:00,
2013-04-27 12:08:00,57.6,51.1,30.10,SW,215,7.0,7.0,79,0.00,,,0.00,VWS V14.00,2013-04-27 17:08:00,
2013-04-27 12:13:00,58.1,50.9,30.10,South,182,4.0,7.0,77,0.00,,,0.00,VWS V14.00,2013-04-27 17:13:00,
2013-04-27 12:18:00,59.1,51.5,30.10,SE,124,0.0,7.0,76,0.00,,,0.00,VWS V14.00,2013-04-27 17:18:00,
2013-04-27 12:23:00,60.1,51.4,30.10,South,190,0.0,7.0,73,0.00,,,0.00,VWS V14.00,2013-04-27 17:23:00,
2013-04-27 12:27:00,61.2,51.7,30.10,SSW,196,0.0,7.0,71,0.00,,,0.00,VWS V14.00,2013-04-27 17:27:00,
2013-04-27 12:32:00,61.8,51.9,30.09,South,191,4.0,7.0,70,0.00,,,0.00,VWS V14.00,2013-04-27 17:32:00,
2013-04-27 12:37:00,62.2,51.9,30.09,SSW,207,4.0,9.0,69,0.00,,,0.00,VWS V14.00,2013-04-27 17:37:00,
2013-04-27 12:42:00,62.5,51.4,30.09,SSW,201,1.0,9.0,67,0.00,,,0.00,VWS V14.00,2013-04-27 17:42:00,
2013-04-27 12:47:00,62.9,51.4,30.09,SW,235,0.0,9.0,66,0.00,,,0.00,VWS V14.00,2013-04-27 17:47:00,
2013-04-27 12:52:00,63.5,51.5,30.09,South,188,0.0,9.0,65,0.00,,,0.00,VWS V14.00,2013-04-27 17:52:00,
2013-04-27 12:57:00,64.3,51.9,30.08,SSE,152,0.0,9.0,64,0.00,,,0.00,VWS V14.00,2013-04-27 17:57:00,
2013-04-27 13:02:00,64.8,51.5,30.08,South,169,2.0,9.0,62,0.00,,,0.00,VWS V14.00,2013-04-27 18:02:00,
2013-04-27 13:07:00,64.8,51.5,30.07,SE,132,0.0,4.0,62,0.00,,,0.00,VWS V14.00,2013-04-27 18:07:00,
2013-04-27 13:12:00,65.4,51.6,30.07,SSW,213,8.0,9.0,61,0.00,,,0.00,VWS V14.00,2013-04-27 18:12:00,
2013-04-27 13:17:00,65.7,51.5,30.07,SSE,163,5.0,9.0,60,0.00,,,0.00,VWS V14.00,2013-04-27 18:17:00,
2013-04-27 13:22:00,66.1,51.4,30.06,SE,144,3.0,9.0,59,0.00,,,0.00,VWS V14.00,2013-04-27 18:22:00,
2013-04-27 13:27:00,66.7,51.5,30.06,SSW,196,0.0,9.0,58,0.00,,,0.00,VWS V14.00,2013-04-27 18:27:00,
2013-04-27 13:32:00,67.3,51.6,30.06,SW,230,2.0,9.0,57,0.00,,,0.00,VWS V14.00,2013-04-27 18:32:00,
2013-04-27 13:37:00,67.6,51.4,30.06,WNW,290,0.0,0.0,56,0.00,,,0.00,VWS V14.00,2013-04-27 18:37:00,
2013-04-27 13:42:00,68.6,51.3,30.06,SE,142,3.0,9.0,54,0.00,,,0.00,VWS V14.00,2013-04-27 18:42:00,
2013-04-27 13:47:00,68.5,50.7,30.05,SE,130,0.0,9.0,53,0.00,,,0.00,VWS V14.00,2013-04-27 18:47:00,
2013-04-27 13:52:00,68.9,51.1,30.05,SSE,167,8.0,9.0,53,0.00,,,0.00,VWS V14.00,2013-04-27 18:52:00,
2013-04-27 13:57:00,69.3,51.5,30.05,South,172,0.0,9.0,53,0.00,,,0.00,VWS V14.00,2013-04-27 18:57:00,
2013-04-27 14:02:00,69.9,51.5,30.04,SSE,167,6.0,10.0,52,0.00,,,0.00,VWS V14.00,2013-04-27 19:02:00,
2013-04-27 14:07:00,69.6,51.7,30.04,ESE,117,0.0,0.0,53,0.00,,,0.00,VWS V14.00,2013-04-27 19:07:00,
2013-04-27 14:12:00,70.3,51.3,30.04,WSW,251,2.0,9.0,51,0.00,,,0.00,VWS V14.00,2013-04-27 19:12:00,
2013-04-27 14:17:00,70.9,51.9,30.04,South,171,6.0,9.0,51,0.00,,,0.00,VWS V14.00,2013-04-27 19:17:00,
2013-04-27 14:22:00,70.6,51.1,30.03,SSE,164,0.0,9.0,50,0.00,,,0.00,VWS V14.00,2013-04-27 19:22:00,
2013-04-27 14:27:00,70.5,51.0,30.03,SE,137,0.0,10.0,50,0.00,,,0.00,VWS V14.00,2013-04-27 19:27:00,
2013-04-27 14:32:00,70.8,50.2,30.03,SSE,162,0.0,10.0,48,0.00,,,0.00,VWS V14.00,2013-04-27 19:32:00,
2013-04-27 14:37:00,71.0,50.9,30.03,SSW,210,0.0,4.0,49,0.00,,,0.00,VWS V14.00,2013-04-27 19:37:00,
2013-04-27 14:42:00,71.6,50.3,30.03,SSE,150,3.0,9.0,47,0.00,,,0.00,VWS V14.00,2013-04-27 19:42:00,
2013-04-27 14:47:00,72.0,50.1,30.02,SSW,207,5.0,11.0,46,0.00,,,0.00,VWS V14.00,2013-04-27 19:47:00,
2013-04-27 14:52:00,72.2,50.3,30.02,SSW,199,0.0,11.0,46,0.00,,,0.00,VWS V14.00,2013-04-27 19:52:00,
2013-04-27 14:57:00,72.5,50.0,30.02,WSW,249,4.0,11.0,45,0.00,,,0.00,VWS V14.00,2013-04-27 19:57:00,
2013-04-27 15:02:00,72.7,48.9,30.02,WSW,257,0.0,11.0,43,0.00,,,0.00,VWS V14.00,2013-04-27 20:02:00,
2013-04-27 15:07:00,73.0,49.8,30.01,SSW,198,0.0,7.0,44,0.00,,,0.00,VWS V14.00,2013-04-27 20:07:00,
2013-04-27 15:12:00,73.3,50.7,30.01,SSW,209,1.0,10.0,45,0.00,,,0.00,VWS V14.00,2013-04-27 20:12:00,
2013-04-27 15:17:00,73.3,50.1,30.01,ESE,119,0.0,10.0,44,0.00,,,0.00,VWS V14.00,2013-04-27 20:17:00,
2013-04-27 15:22:00,73.1,49.3,30.01,SSW,210,0.0,10.0,43,0.00,,,0.00,VWS V14.00,2013-04-27 20:22:00,
2013-04-27 15:27:00,73.2,49.4,30.00,WNW,284,0.0,10.0,43,0.00,,,0.00,VWS V14.00,2013-04-27 20:27:00,
2013-04-27 15:32:00,73.6,49.1,30.00,South,172,2.0,10.0,42,0.00,,,0.00,VWS V14.00,2013-04-27 20:32:00,
2013-04-27 15:37:00,73.6,48.5,30.00,SSW,207,0.0,2.0,41,0.00,,,0.00,VWS V14.00,2013-04-27 20:37:00,
2013-04-27 15:42:00,73.4,48.3,30.00,SSW,202,0.0,2.0,41,0.00,,,0.00,VWS V14.00,2013-04-27 20:42:00,
2013-04-27 15:47:00,73.7,48.6,30.00,SSW,199,0.0,9.0,41,0.00,,,0.00,VWS V14.00,2013-04-27 20:47:00,
2013-04-27 15:52:00,74.0,48.2,29.99,SW,214,0.0,9.0,40,0.00,,,0.00,VWS V14.00,2013-04-27 20:52:00,
2013-04-27 15:57:00,74.7,48.8,29.99,South,188,7.0,11.0,40,0.00,,,0.00,VWS V14.00,2013-04-27 20:57:00,
2013-04-27 16:02:00,74.5,48.6,29.99,South,180,0.0,11.0,40,0.00,,,0.00,VWS V14.00,2013-04-27 21:02:00,
2013-04-27 16:07:00,73.8,48.7,29.98,North,360,0.0,2.0,41,0.00,,,0.00,VWS V14.00,2013-04-27 21:07:00,
2013-04-27 16:12:00,74.1,46.9,29.98,SSW,210,0.0,10.0,38,0.00,,,0.00,VWS V14.00,2013-04-27 21:12:00,
2013-04-27 16:17:00,74.4,46.5,29.98,West,259,0.0,10.0,37,0.00,,,0.00,VWS V14.00,2013-04-27 21:17:00,
2013-04-27 16:22:00,74.9,47.6,29.98,WSW,247,0.0,10.0,38,0.00,,,0.00,VWS V14.00,2013-04-27 21:22:00,
2013-04-27 16:27:00,75.5,46.7,29.98,WSW,257,0.0,10.0,36,0.00,,,0.00,VWS V14.00,2013-04-27 21:27:00,
2013-04-27 16:32:00,75.7,47.6,29.97,SSW,210,0.0,10.0,37,0.00,,,0.00,VWS V14.00,2013-04-27 21:32:00,
2013-04-27 16:37:00,75.6,46.8,29.97,SSE,155,1.0,6.0,36,0.00,,,0.00,VWS V14.00,2013-04-27 21:37:00,
2013-04-27 16:42:00,74.9,45.4,29.97,SE,136,0.0,7.0,35,0.00,,,0.00,VWS V14.00,2013-04-27 21:42:00,
2013-04-27 16:47:00,74.9,46.2,29.97,SE,127,0.0,7.0,36,0.00,,,0.00,VWS V14.00,2013-04-27 21:47:00,
2013-04-27 16:52:00,75.2,45.7,29.97,SE,144,0.0,7.0,35,0.00,,,0.00,VWS V14.00,2013-04-27 21:52:00,
2013-04-27 16:57:00,75.1,47.1,29.96,SE,140,11.0,14.0,37,0.00,,,0.00,VWS V14.00,2013-04-27 21:57:00,
2013-04-27 17:02:00,74.6,47.3,29.96,SSW,200,0.0,14.0,38,0.00,,,0.00,VWS V14.00,2013-04-27 22:02:00,
2013-04-27 17:07:00,74.4,45.0,29.96,South,181,0.0,7.0,35,0.00,,,0.00,VWS V14.00,2013-04-27 22:07:00,
2013-04-27 17:12:00,74.6,45.9,29.96,SE,145,3.0,7.0,36,0.00,,,0.00,VWS V14.00,2013-04-27 22:12:00,
2013-04-27 17:17:00,74.7,45.3,29.95,SSE,151,0.0,7.0,35,0.00,,,0.00,VWS V14.00,2013-04-27 22:17:00,
2013-04-27 17:22:00,74.8,45.3,29.95,SSW,212,0.0,9.0,35,0.00,,,0.00,VWS V14.00,2013-04-27 22:22:00,
2013-04-27 17:27:00,75.0,45.5,29.95,WNW,292,0.0,9.0,35,0.00,,,0.00,VWS V14.00,2013-04-27 22:27:00,
2013-04-27 17:32:00,75.7,46.1,29.94,West,276,0.0,9.0,35,0.00,,,0.00,VWS V14.00,2013-04-27 22:32:00,
2013-04-27 17:37:00,76.0,45.6,29.94,SSE,157,0.0,1.0,34,0.00,,,0.00,VWS V14.00,2013-04-27 22:37:00,
2013-04-27 17:42:00,75.9,45.5,29.94,SSW,202,1.0,7.0,34,0.00,,,0.00,VWS V14.00,2013-04-27 22:42:00,
2013-04-27 17:47:00,75.8,45.5,29.94,SSW,208,0.0,7.0,34,0.00,,,0.00,VWS V14.00,2013-04-27 22:47:00,
2013-04-27 17:52:00,75.8,45.5,29.94,SSW,205,0.0,7.0,34,0.00,,,0.00,VWS V14.00,2013-04-27 22:52:00,
2013-04-27 17:57:00,75.7,44.6,29.94,SSE,152,0.0,7.0,33,0.00,,,0.00,VWS V14.00,2013-04-27 22:57:00,
2013-04-27 18:02:00,75.6,46.0,29.94,South,187,0.0,7.0,35,0.00,,,0.00,VWS V14.00,2013-04-27 23:02:00,
2013-04-27 18:07:00,75.4,46.6,29.94,SSE,164,4.0,7.0,36,0.00,,,0.00,VWS V14.00,2013-04-27 23:07:00,
2013-04-27 18:12:00,75.0,47.0,29.93,SSE,152,0.0,7.0,37,0.00,,,0.00,VWS V14.00,2013-04-27 23:12:00,
2013-04-27 18:17:00,74.5,46.5,29.93,East,90,0.0,9.0,37,0.00,,,0.00,VWS V14.00,2013-04-27 23:17:00,
2013-04-27 18:22:00,74.0,46.8,29.93,SE,141,6.0,9.0,38,0.00,,,0.00,VWS V14.00,2013-04-27 23:22:00,
2013-04-27 18:27:00,73.7,45.8,29.93,SE,128,5.0,9.0,37,0.00,,,0.00,VWS V14.00,2013-04-27 23:27:00,
2013-04-27 18:31:00,73.5,46.4,29.93,SSE,165,3.0,10.0,38,0.00,,,0.00,VWS V14.00,2013-04-27 23:31:00,
2013-04-27 18:36:00,73.2,46.1,29.93,SE,126,0.0,4.0,38,0.00,,,0.00,VWS V14.00,2013-04-27 23:36:00,
2013-04-27 18:41:00,73.0,46.6,29.92,ENE,71,4.0,5.0,39,0.00,,,0.00,VWS V14.00,2013-04-27 23:41:00,
2013-04-27 18:46:00,72.8,46.4,29.93,East,91,0.0,5.0,39,0.00,,,0.00,VWS V14.00,2013-04-27 23:46:00,
2013-04-27 18:51:00,72.9,45.8,29.92,SSE,163,0.0,5.0,38,0.00,,,0.00,VWS V14.00,2013-04-27 23:51:00,
2013-04-27 18:56:00,73.0,46.6,29.92,SSE,149,0.0,7.0,39,0.00,,,0.00,VWS V14.00,2013-04-27 23:56:00,
2013-04-27 19:01:00,72.8,47.1,29.92,SE,144,9.0,10.0,40,0.00,,,0.00,VWS V14.00,2013-04-28 00:01:00,
2013-04-27 19:06:00,72.4,47.4,29.92,SE,146,12.0,12.0,41,0.00,,,0.00,VWS V14.00,2013-04-28 00:06:00,
2013-04-27 19:11:00,71.9,47.0,29.92,SSE,150,3.0,13.0,41,0.00,,,0.00,VWS V14.00,2013-04-28 00:11:00,
2013-04-27 19:16:00,71.6,46.7,29.92,SSE,160,3.0,13.0,41,0.00,,,0.00,VWS V14.00,2013-04-28 00:16:00,
2013-04-27 19:21:00,71.3,47.0,29.92,SE,140,4.0,13.0,42,0.00,,,0.00,VWS V14.00,2013-04-28 00:21:00,
2013-04-27 19:26:00,70.9,47.3,29.92,SE,132,1.0,13.0,43,0.00,,,0.00,VWS V14.00,2013-04-28 00:26:00,
2013-04-27 19:31:00,70.4,47.5,29.92,SE,137,6.0,13.0,44,0.00,,,0.00,VWS V14.00,2013-04-28 00:31:00,
2013-04-27 19:36:00,70.0,47.7,29.92,ESE,113,0.0,6.0,45,0.00,,,0.00,VWS V14.00,2013-04-28 00:36:00,
2013-04-27 19:41:00,69.5,47.2,29.92,SE,128,0.0,8.0,45,0.00,,,0.00,VWS V14.00,2013-04-28 00:41:00,
2013-04-27 19:46:00,69.1,47.5,29.92,SE,138,6.0,11.0,46,0.00,,,0.00,VWS V14.00,2013-04-28 00:46:00,
2013-04-27 19:51:00,68.7,47.1,29.92,ESE,113,0.0,11.0,46,0.00,,,0.00,VWS V14.00,2013-04-28 00:51:00,
2013-04-27 19:56:00,68.3,47.3,29.92,SSE,148,0.0,11.0,47,0.00,,,0.00,VWS V14.00,2013-04-28 00:56:00,
2013-04-27 20:01:00,67.9,47.0,29.91,SE,141,7.0,11.0,47,0.00,,,0.00,VWS V14.00,2013-04-28 01:01:00,
2013-04-27 20:06:00,67.4,47.6,29.91,ESE,106,5.0,9.0,49,0.00,,,0.00,VWS V14.00,2013-04-28 01:06:00,
2013-04-27 20:11:00,66.8,48.1,29.92,East,101,0.0,11.0,51,0.00,,,0.00,VWS V14.00,2013-04-28 01:11:00,
2013-04-27 20:16:00,66.3,48.7,29.92,East,99,3.0,14.0,53,0.00,,,0.00,VWS V14.00,2013-04-28 01:16:00,
2013-04-27 20:21:00,65.9,49.3,29.92,SSE,158,5.0,14.0,55,0.00,,,0.00,VWS V14.00,2013-04-28 01:21:00,
2013-04-27 20:26:00,65.4,49.3,29.92,SSE,152,0.0,14.0,56,0.00,,,0.00,VWS V14.00,2013-04-28 01:26:00,
2013-04-27 20:31:00,65.0,49.4,29.91,SE,127,3.0,15.0,57,0.00,,,0.00,VWS V14.00,2013-04-28 01:31:00,
2013-04-27 20:36:00,64.5,49.4,29.92,SE,132,12.0,12.0,58,0.00,,,0.00,VWS V14.00,2013-04-28 01:36:00,
2013-04-27 20:41:00,64.1,49.5,29.91,SE,132,10.0,12.0,59,0.00,,,0.00,VWS V14.00,2013-04-28 01:41:00,
2013-04-27 20:46:00,63.6,49.0,29.91,SE,136,9.0,13.0,59,0.00,,,0.00,VWS V14.00,2013-04-28 01:46:00,
2013-04-27 20:51:00,63.2,49.1,29.92,ESE,115,3.0,13.0,60,0.00,,,0.00,VWS V14.00,2013-04-28 01:51:00,
2013-04-27 20:56:00,62.8,49.2,29.92,SSE,151,5.0,13.0,61,0.00,,,0.00,VWS V14.00,2013-04-28 01:56:00,
2013-04-27 21:01:00,62.5,49.3,29.91,SE,146,5.0,13.0,62,0.00,,,0.00,VWS V14.00,2013-04-28 02:01:00,
2013-04-27 21:06:00,62.1,48.9,29.92,SSE,148,3.0,6.0,62,0.00,,,0.00,VWS V14.00,2013-04-28 02:06:00,
2013-04-27 21:11:00,61.7,49.0,29.92,SE,129,5.0,8.0,63,0.00,,,0.00,VWS V14.00,2013-04-28 02:11:00,
2013-04-27 21:16:00,61.4,48.7,29.92,SSE,168,6.0,11.0,63,0.00,,,0.00,VWS V14.00,2013-04-28 02:16:00,
2013-04-27 21:21:00,61.1,48.8,29.92,SSE,166,2.0,11.0,64,0.00,,,0.00,VWS V14.00,2013-04-28 02:21:00,
2013-04-27 21:26:00,60.7,48.5,29.92,SE,140,0.0,11.0,64,0.00,,,0.00,VWS V14.00,2013-04-28 02:26:00,
2013-04-27 21:31:00,60.4,48.6,29.92,SE,130,5.0,11.0,65,0.00,,,0.00,VWS V14.00,2013-04-28 02:31:00,
2013-04-27 21:36:00,60.1,48.7,29.92,SSE,152,0.0,3.0,66,0.00,,,0.00,VWS V14.00,2013-04-28 02:36:00,
2013-04-27 21:41:00,59.7,48.3,29.92,SSE,157,2.0,7.0,66,0.00,,,0.00,VWS V14.00,2013-04-28 02:41:00,
2013-04-27 21:46:00,59.4,48.5,29.92,SSE,155,0.0,7.0,67,0.00,,,0.00,VWS V14.00,2013-04-28 02:46:00,
2013-04-27 21:51:00,59.0,48.1,29.92,SSE,150,0.0,7.0,67,0.00,,,0.00,VWS V14.00,2013-04-28 02:51:00,
2013-04-27 21:56:00,59.0,48.5,29.92,South,173,0.0,8.0,68,0.00,,,0.00,VWS V14.00,2013-04-28 02:56:00,
2013-04-27 22:01:00,58.9,48.4,29.93,SSE,153,4.0,9.0,68,0.00,,,0.00,VWS V14.00,2013-04-28 03:01:00,
2013-04-27 22:06:00,58.6,48.5,29.92,SSE,155,7.0,7.0,69,0.00,,,0.00,VWS V14.00,2013-04-28 03:06:00,
2013-04-27 22:11:00,58.4,48.3,29.93,ESE,121,4.0,9.0,69,0.00,,,0.00,VWS V14.00,2013-04-28 03:11:00,
2013-04-27 22:16:00,58.3,48.2,29.92,SSE,150,0.0,9.0,69,0.00,,,0.00,VWS V14.00,2013-04-28 03:16:00,
2013-04-27 22:21:00,58.1,48.0,29.92,SSE,168,5.0,9.0,69,0.00,,,0.00,VWS V14.00,2013-04-28 03:21:00,
2013-04-27 22:26:00,58.0,48.3,29.93,SSE,161,4.0,9.0,70,0.00,,,0.00,VWS V14.00,2013-04-28 03:26:00,
2013-04-27 22:31:00,58.0,48.3,29.92,South,169,3.0,10.0,70,0.00,,,0.00,VWS V14.00,2013-04-28 03:31:00,
2013-04-27 22:36:00,57.9,48.2,29.93,SSE,162,1.0,4.0,70,0.00,,,0.00,VWS V14.00,2013-04-28 03:36:00,
2013-04-27 22:41:00,57.8,48.1,29.92,South,178,2.0,10.0,70,0.00,,,0.00,VWS V14.00,2013-04-28 03:41:00,
2013-04-27 22:46:00,57.8,48.1,29.92,SSE,167,5.0,10.0,70,0.00,,,0.00,VWS V14.00,2013-04-28 03:46:00,
2013-04-27 22:51:00,57.7,48.0,29.92,SSE,153,9.0,13.0,70,0.00,,,0.00,VWS V14.00,2013-04-28 03:51:00,
2013-04-27 22:56:00,57.6,47.9,29.92,SSE,159,5.0,13.0,70,0.00,,,0.00,VWS V14.00,2013-04-28 03:56:00,
2013-04-27 23:01:00,57.5,47.8,29.92,SSE,157,4.0,13.0,70,0.00,,,0.00,VWS V14.00,2013-04-28 04:01:00,
2013-04-27 23:02:00,57.4,47.7,29.92,SSE,165,5.0,13.0,70,0.00,,,0.00,VWS V14.00,2013-04-28 04:02:00,
2013-04-27 23:07:00,57.2,47.9,29.92,SSE,163,3.0,7.0,71,0.00,,,0.00,VWS V14.00,2013-04-28 04:07:00,
2013-04-27 23:12:00,57.0,47.7,29.93,SSE,157,6.0,7.0,71,0.00,,,0.00,VWS V14.00,2013-04-28 04:12:00,
2013-04-27 23:16:00,56.7,47.4,29.92,SSE,159,3.0,11.0,71,0.00,,,0.00,VWS V14.00,2013-04-28 04:16:00,
2013-04-27 23:21:00,56.4,47.5,29.92,SSE,157,5.0,11.0,72,0.00,,,0.00,VWS V14.00,2013-04-28 04:21:00,
2013-04-27 23:26:00,56.1,47.2,29.92,South,186,3.0,11.0,72,0.00,,,0.00,VWS V14.00,2013-04-28 04:26:00,
2013-04-27 23:31:00,55.8,47.3,29.92,SSE,148,3.0,11.0,73,0.00,,,0.00,VWS V14.00,2013-04-28 04:31:00,
2013-04-27 23:36:00,55.7,47.2,29.92,SSE,156,3.0,9.0,73,0.00,,,0.00,VWS V14.00,2013-04-28 04:36:00,
2013-04-27 23:41:00,55.5,47.4,29.92,South,172,5.0,9.0,74,0.00,,,0.00,VWS V14.00,2013-04-28 04:41:00,
2013-04-27 23:46:00,55.3,47.2,29.92,SSE,159,0.0,9.0,74,0.00,,,0.00,VWS V14.00,2013-04-28 04:46:00,
2013-04-27 23:51:00,55.1,47.0,29.92,South,172,4.0,9.0,74,0.00,,,0.00,VWS V14.00,2013-04-28 04:51:00,
2013-04-27 23:56:00,54.9,47.1,29.91,SSE,168,1.0,9.0,75,0.00,,,0.00,VWS V14.00,2013-04-28 04:56:00,